Weather History for KSTS - October, 2011

Change the Weather History Date:

Monday, October 31, 2011

  Actual Average Record
Temperature  
Mean Temperature 62 °F 57 °F  
Max Temperature 80 °F 71 °F 81 °F (1999)
Min Temperature 43 °F 43 °F 30 °F (2002)
Degree Days  
Heating Degree Days 3    
Month to date heating degree days 121  
Since 1 July heating degree days 153  
Cooling Degree Days 0    
Month to date cooling degree days 24  
Year to date cooling degree days 345  
Growing Degree Days 12 (Base 50)    
Moisture  
Dew Point 50 °F    
Average Humidity 68    
Maximum Humidity 93    
Minimum Humidity 42    
Precipitation  
Precipitation 0.00 in 0.11 in 0.86 in (2012)
Month to date precipitation 1.83 2.03  
Year to date precipitation 24.29 24.56  
Since 1 July precipitation 1.85 2.47  
Sea Level Pressure  
Sea Level Pressure 30.00 in    
Wind  
Wind Speed 2 mph (SSE)    
Max Wind Speed 10 mph    
Max Gust Speed 13 mph    
Visibility 10 miles    
Events Fog    
T = Trace of Precipitation, MM = Missing Value Source: NWS Daily Summary

Daily Weather History Graph

Daily Weather History Graph

Search for Another Location

Airport or City:

Trip Planner

Search our weather history database for the weather conditions in past years. The results will help you decide how hot, cold, wet, or windy it might be!

Date:

Astronomy

Oct. 31, 2011 Rise Set
Actual Time 7:36 AM PDT 6:12 PM PDT
Civil Twilight 7:09 AM PDT 6:40 PM PDT
Nautical Twilight 6:37 AM PDT 7:11 PM PDT
Astronomical Twilight 6:06 AM PDT 7:42 PM PDT
Moon 12:46 PM PDT (10/31) 10:56 PM PDT (10/31)
Length of Visible Light 11h 30m
Length of Day
10h 36m
Waxing Crescent, 31% of the Moon is Illuminated
Oct 31
Waxing Crescent
Nov 2
First Quarter
Nov 10
Full
Nov 18
Last Quarter
Nov 24
New

Hourly Weather History & Observations

Time (PDT) Temp. Heat Index Dew Point Humidity Pressure Visibility Wind Dir Wind Speed Gust Speed Precip Events Conditions
12:53 AM 51.1 °F - 46.9 °F 86% 30.05 in 10.0 mi Calm Calm - N/A   Clear
1:53 AM 50.0 °F - 46.9 °F 89% 30.04 in 10.0 mi Calm Calm - N/A   Clear
3:53 AM 48.0 °F - 45.0 °F 89% 30.02 in 10.0 mi Calm Calm - N/A   Clear
4:53 AM 48.0 °F - 45.0 °F 89% 30.02 in 7.0 mi Calm Calm - N/A   Clear
5:29 AM 46.4 °F - 44.6 °F 93% 30.04 in 2.5 mi Calm Calm - N/A   Partly Cloudy
5:44 AM 46.4 °F - 44.6 °F 93% 30.04 in 10.0 mi Calm Calm - N/A   Clear
5:53 AM 46.9 °F - 44.1 °F 90% 30.03 in 10.0 mi Calm Calm - N/A   Clear
6:53 AM 46.0 °F - 44.1 °F 93% 30.02 in 10.0 mi Calm Calm - N/A Fog Patches of Fog
7:53 AM 44.1 °F - 43.0 °F 96% 30.03 in 10.0 mi Calm Calm - N/A Fog Patches of Fog
8:53 AM 50.0 °F - 48.0 °F 93% 30.04 in 10.0 mi Calm Calm - N/A   Clear
9:53 AM 59.0 °F - 54.0 °F 83% 30.04 in 10.0 mi Calm Calm - N/A   Clear
10:53 AM 66.9 °F - 55.0 °F 66% 30.03 in 10.0 mi Calm Calm - N/A   Clear
11:53 AM 73.0 °F - 55.0 °F 53% 30.02 in 10.0 mi North 3.5 mph - N/A   Clear
12:53 PM 75.9 °F - 55.0 °F 48% 30.00 in 10.0 mi Calm Calm - N/A   Clear
1:53 PM 78.1 °F - 55.0 °F 45% 29.97 in 10.0 mi East 3.5 mph - N/A   Partly Cloudy
2:53 PM 80.1 °F 80.1 °F 55.0 °F 42% 29.95 in 10.0 mi Variable 3.5 mph - N/A   Clear
3:53 PM 80.1 °F 80.1 °F 55.0 °F 42% 29.94 in 10.0 mi South 6.9 mph - N/A   Scattered Clouds
4:53 PM 77.0 °F - 55.0 °F 47% 29.94 in 10.0 mi South 6.9 mph - N/A   Clear
5:53 PM 71.1 °F - 55.0 °F 57% 29.93 in 10.0 mi SSE 6.9 mph - N/A   Scattered Clouds
6:53 PM 64.9 °F - 55.0 °F 70% 29.94 in 10.0 mi Calm Calm - N/A   Scattered Clouds
7:53 PM 60.1 °F - 53.1 °F 78% 29.95 in 10.0 mi Calm Calm - N/A   Clear
8:53 PM 57.0 °F - 52.0 °F 83% 29.95 in 10.0 mi SSW 4.6 mph - N/A   Clear
9:53 PM 54.0 °F - 51.1 °F 90% 29.97 in 10.0 mi Calm Calm - N/A   Clear
10:53 PM 54.0 °F - 50.0 °F 86% 29.97 in 10.0 mi North 4.6 mph - N/A   Clear